SOYUZ-MS 12 (44069 NORAD) Tracking and Keplerian Element Data

This shows tracking and keplerian element data for the satellite.

Feedback or suggestion? Click here.




ElementValue
Catalog44069
NameSOYUZ-MS 12
Epoch Orbit1968
Epoch Day200.53792956
Epoch Year2019
RAAN200.7673
Inclination51.6423
Eccentricity0.000696
Argument of Perigee157.2105
Mean Anonmoly348.5765
Mean Motion15.50991132
Decay Rate1.491E-05
L11 44069U 19013A 19200.53792956 .00001491 00000-0 33048-4 0 9992
L22 44069 51.6423 200.7673 0006960 157.2105 348.5765 15.50991132 19681

Live tracking and technical data element details for SOYUZ-MS 12 (NORAD 44069). SOYUZ-MS 12 can be tracked NOW for your location showing map with azimuth and elevation plus other details from your city location.

Track the satellite on the map from your city or location and see movement details for azimuth, elevation, latitude, longitude, range, height, and movement on the map or in text.







IsCatalogInMostPopularTable: catalog: 44069, numindb: 51
Update: records affected: 1



GetName: 44069 SOYUZ-MS 12

Hit Count: updated at: Sat, 20 Jul 2019 23:05:45 GMT